Theta_e
294 295 298 297 297 297 297 296 296 295 296 296 296 296 296 296 296 294 292 296 291 285 286 289 290 286 286 287 283 283 285 286 285 282 282 282 282 283 282 283 279 282 281 280 282 280 278 289 288 286 293 292 292 295
293 295 294 297 297 296 296 296 296 296 295 295 295 295 295 295 296 296 289 295 296 288 287 291 292 293 292 293 289 288 286 285 287 284 284 284 283 285 281 279 285 282 287 285 285 283 292 291 291 295 294 294 292 294
292 291 292 297 296 296 296 295 295 295 295 295 295 294 295 295 296 295 291 292 291 285 285 286 284 291 294 294 296 286 290 291 290 292 284 283 282 285 280 282 283 284 287 285 287 289 291 290 294 294 295 295 292 294
292 291 290 296 295 295 295 295 294 294 294 294 294 294 294 295 296 296 290 292 290 286 280 281 291 288 293 293 293 293 290 292 292 292 287 285 282 285 283 284 285 288 286 283 286 288 287 291 292 294 295 293 291 293
291 290 289 295 295 295 295 294 294 294 294 294 294 294 294 294 295 294 292 292 292 285 277 277 285 288 292 290 289 290 289 287 286 285 284 283 285 285 284 283 284 288 285 285 285 290 292 294 296 295 294 293 292 291
290 289 290 295 294 294 294 293 293 293 293 293 293 293 294 294 294 289 280 291 293 291 282 276 281 283 288 290 289 289 288 287 286 282 283 285 284 285 280 283 287 290 292 294 291 292 293 292 288 289 293 293 290 290
289 287 292 294 294 294 293 293 293 293 293 293 293 293 294 293 290 286 281 288 294 292 282 277 275 281 283 284 285 285 287 285 285 284 283 283 284 287 283 279 285 289 290 292 292 290 288 288 292 290 289 288 284 284
289 289 293 293 293 293 292 292 291 292 292 293 293 293 293 293 291 287 290 294 293 287 284 275 273 275 283 276 275 285 279 282 285 284 283 282 285 284 279 283 286 289 289 289 290 290 292 289 285 287 282 281 282 286
290 292 293 292 292 292 291 291 291 291 291 292 292 292 287 287 284 284 293 295 291 286 278 273 269 267 283 279 281 283 283 273 282 281 281 283 281 277 281 284 285 286 287 289 289 290 285 283 288 283 283 279 283 285
291 293 292 292 291 291 291 291 291 291 291 291 287 284 280 283 291 292 287 283 283 282 280 277 280 270 279 277 273 273 282 274 276 280 283 280 279 284 285 286 286 287 288 289 288 288 278 278 286 287 285 287 288 288
292 291 290 290 290 290 290 290 291 291 291 285 282 280 285 290 286 282 277 276 272 271 276 275 277 275 282 271 273 280 273 278 272 277 276 272 276 282 285 285 287 288 287 288 290 291 289 287 288 287 287 285 286 284
287 287 288 289 289 290 290 291 291 288 286 285 283 285 284 282 278 274 274 275 270 268 273 274 276 277 277 282 275 277 276 278 273 279 273 268 280 279 272 277 276 280 288 288 285 288 286 286 287 288 288 282 281 280
287 288 290 291 292 292 292 292 292 292 291 285 281 278 277 274 271 268 261 262 265 269 270 274 274 278 280 282 277 275 275 272 278 275 276 271 268 267 265 268 273 274 269 271 271 272 276 280 281 284 280 276 279 278
289 290 291 293 293 294 294 293 293 291 285 279 275 269 272 268 268 268 267 267 270 272 272 273 273 276 278 278 278 276 277 278 274 271 273 272 266 266 268 271 273 275 274 267 267 268 270 273 274 275 276 279 279 278
289 290 290 292 291 292 294 294 291 284 281 276 276 270 268 267 263 262 263 266 268 272 279 278 275 278 276 277 279 277 273 272 272 271 274 266 261 262 267 268 270 272 272 272 267 266 268 271 274 275 277 279 279 279
288 288 286 291 290 289 288 286 282 279 273 269 266 263 262 263 261 261 264 268 272 276 277 276 277 276 275 276 273 271 270 268 270 272 268 265 264 265 265 267 269 270 270 270 270 269 269 271 272 271 272 275 276 276
286 282 289 289 287 286 286 278 275 269 267 264 261 262 264 265 266 266 268 270 272 273 274 276 273 272 273 273 270 272 269 271 264 265 263 263 262 262 263 266 268 268 267 267 267 267 268 269 270 269 266 266 267 268
280 282 289 288 285 281 271 270 268 266 262 262 264 263 266 263 265 266 268 269 269 273 271 272 272 268 264 264 265 268 267 264 264 262 262 261 262 263 263 265 267 267 267 267 267 266 266 265 264 263 264 265 265 265
282 282 285 287 284 277 273 269 268 263 262 264 264 266 266 266 266 266 267 268 267 268 269 269 266 263 267 268 265 266 266 265 264 263 261 260 261 261 263 265 266 265 265 265 264 263 263 264 264 265 265 265 263 263
284 283 281 282 282 276 271 266 266 266 264 263 265 266 265 264 263 264 265 264 263 264 264 263 259 257 257 256 256 257 260 261 261 261 262 261 261 262 262 262 262 262 264 265 265 264 264 263 263 264 264 264 263 262
278 276 278 272 268 265 263 260 262 260 263 263 263 265 265 264 260 259 258 259 260 253 257 257 254 254 254 255 255 254 257 256 257 257 259 259 258 259 259 262 264 264 264 264 264 263 262 261 262 263 262 262 262 263
269 278 267 269 264 262 260 258 259 259 260 260 262 263 263 262 258 256 256 258 252 250 249 249 251 250 251 250 251 249 250 251 256 257 258 258 256 257 259 260 261 262 262 264 264 262 262 262 262 262 261 261 262 262
271 270 263 262 260 260 257 257 259 259 261 259 259 259 257 257 256 258 255 253 251 251 248 247 248 248 249 250 251 253 251 251 256 258 258 256 254 255 256 259 260 258 260 262 263 262 262 262 262 261 262 262 261 261
267 255 254 253 255 253 253 255 257 259 260 260 261 258 256 254 256 259 253 252 253 252 250 250 250 251 250 249 250 249 250 250 255 256 257 257 256 255 255 257 259 260 261 262 262 262 261 261 262 261 262 261 261 260
258 252 253 252 256 254 252 251 252 257 254 255 258 258 255 253 258 256 253 252 252 252 250 250 249 250 247 249 250 252 252 252 253 253 255 256 253 256 255 254 256 258 260 260 260 261 261 261 261 261 261 260 259 259
248 251 251 251 254 253 252 251 250 250 252 252 251 252 252 256 258 252 250 249 250 251 249 247 247 246 247 250 250 251 252 254 254 254 253 255 256 253 251 251 253 253 258 259 261 260 261 261 261 260 259 259 260 259
248 247 250 255 253 254 255 255 252 251 249 249 250 251 252 251 248 247 249 247 247 248 249 248 247 246 247 248 250 252 254 255 254 255 257 256 255 256 255 254 256 257 258 259 261 261 260 260 260 260 259 260 260 260
247 248 245 249 252 254 253 254 250 247 247 246 246 246 247 244 245 246 246 247 248 247 246 247 248 248 249 249 251 252 253 255 255 256 256 256 255 254 254 255 258 265 262 261 262 262 262 261 260 260 260 259 259 260
247 248 248 251 254 251 247 247 247 245 244 243 245 244 243 244 244 243 246 247 246 247 249 248 249 251 252 252 254 254 253 253 252 253 254 253 253 254 256 256 260 262 263 263 265 263 262 262 261 260 260 259 259 260
245 247 247 250 250 248 247 246 247 246 245 243 242 242 241 240 241 239 240 243 245 246 248 250 250 249 250 250 252 254 253 253 252 250 251 253 253 256 257 259 261 262 263 263 263 263 264 260 260 258 258 258 257 257
246 247 248 250 248 248 248 248 247 246 246 246 244 243 242 241 241 240 239 239 241 248 248 248 248 249 247 247 248 249 250 252 252 252 252 253 256 257 259 260 262 262 261 260 259 259 259 259 258 257 257 257 256 256
245 245 244 246 248 247 248 248 249 250 249 249 248 247 244 243 242 243 242 246 248 245 247 247 246 247 248 248 249 250 251 251 252 253 253 254 255 256 257 258 260 260 259 259 259 259 259 258 257 257 256 255 255 254
244 246 246 247 248 247 246 245 250 250 250 249 247 247 247 248 248 247 242 240 242 242 243 246 247 247 247 248 248 250 251 252 254 258 258 257 257 257 256 257 258 258 258 258 257 258 258 257 257 256 255 254 253 252
Wind_Speed
19 16 23 29 26 26 25 22 20 15 17 18 13 12 13 12 12 10 4 7 3 3 5 6 6 8 5 6 9 4 3 2 4 5 7 5 5 5 3 8 9 12 10 6 5 9 15 4 4 13 5 3 3 7
15 13 23 31 30 27 24 20 19 20 18 16 13 12 12 13 13 11 4 6 6 4 2 4 6 8 6 7 3 4 5 5 8 6 5 3 4 3 5 6 3 7 8 9 10 7 5 8 2 13 5 4 4 4
10 12 18 30 28 26 24 21 20 19 17 16 16 14 12 14 15 14 6 5 3 3 4 5 9 13 9 6 4 3 2 4 3 5 4 4 7 4 5 5 4 3 1 3 1 8 10 7 8 6 5 10 2 5
14 12 16 27 26 25 24 22 19 19 17 16 17 14 11 12 14 14 6 5 6 1 5 3 7 11 13 15 14 14 15 11 7 4 3 3 4 2 5 5 7 7 8 7 14 9 4 5 8 10 10 5 4 4
10 10 13 22 26 25 24 22 20 19 19 18 16 13 11 9 10 6 4 5 7 6 2 2 5 4 6 11 16 15 12 10 5 4 4 6 2 2 3 2 8 8 8 9 10 7 11 13 12 9 8 9 8 5
10 8 21 25 24 24 22 21 19 16 15 15 16 13 12 9 8 2 1 5 8 7 4 5 4 10 9 9 9 11 10 8 8 4 6 4 4 3 3 6 13 11 10 15 10 5 6 7 4 4 7 9 9 9
10 3 17 25 24 23 21 20 18 16 13 13 12 12 13 10 4 4 4 1 9 8 3 4 4 5 8 7 5 7 9 6 7 9 9 11 7 6 4 12 15 13 7 8 7 5 7 3 8 7 8 5 4 3
9 10 18 23 21 19 18 16 16 15 12 13 13 12 11 9 2 4 6 11 3 5 3 4 5 1 6 4 2 3 3 3 6 5 3 10 6 7 9 18 20 18 16 15 12 8 11 6 2 6 2 4 4 8
11 12 21 19 18 19 17 15 15 14 15 14 11 12 2 2 3 4 9 16 4 5 3 3 5 5 6 4 4 4 4 4 4 9 11 6 8 9 12 23 19 10 10 10 10 14 7 7 12 2 5 2 6 8
11 17 17 17 16 16 16 17 17 15 13 13 4 2 4 5 4 10 2 4 7 5 4 3 0 4 5 4 3 3 4 5 8 13 7 11 16 17 17 22 10 15 17 12 15 16 5 6 13 11 11 9 12 12
16 14 11 11 13 14 16 17 17 16 15 5 4 5 2 2 2 4 5 4 2 3 5 5 8 7 2 1 5 5 5 4 6 5 7 5 14 20 28 30 20 13 11 12 14 15 8 8 10 10 10 10 9 7
6 4 7 12 16 19 21 22 22 14 4 7 6 6 2 3 3 4 5 4 4 7 5 7 7 8 3 5 1 4 3 4 7 8 6 5 17 10 6 6 5 9 17 15 10 14 10 8 9 9 9 8 8 7
2 6 13 18 22 25 27 27 27 23 17 3 5 6 5 2 6 8 7 5 4 4 2 3 5 6 2 3 4 4 7 10 2 5 6 3 3 3 4 7 8 4 6 2 3 3 2 3 3 6 6 3 9 8
3 8 18 12 7 21 34 32 23 17 5 4 6 5 6 5 6 7 5 4 2 3 3 2 3 4 5 7 7 8 8 1 2 5 18 2 3 6 7 6 7 4 4 3 2 2 4 5 3 3 5 8 10 10
3 11 18 15 21 25 13 28 20 3 2 3 3 5 5 2 3 1 2 2 2 1 3 2 2 3 3 4 5 4 2 5 3 3 2 2 3 5 6 7 7 5 4 2 3 1 3 5 5 7 4 6 9 12
4 6 9 17 19 18 18 13 4 4 4 3 3 3 1 3 1 0 2 2 1 2 2 3 5 5 5 6 4 3 2 2 1 2 3 3 3 4 6 9 7 6 4 3 3 4 5 4 6 8 8 5 8 10
9 3 11 12 13 16 18 5 3 5 4 3 1 2 2 1 1 1 1 2 1 1 4 2 4 5 3 2 2 2 1 1 1 1 2 3 6 7 8 9 7 5 3 4 4 4 7 7 8 9 10 6 11 11
5 5 9 11 9 6 4 6 4 4 6 3 2 1 0 2 2 2 2 1 1 1 1 2 3 3 3 4 0 2 3 2 2 3 3 3 5 4 5 8 6 5 2 5 7 9 10 10 9 7 8 8 10 11
7 7 9 10 7 4 4 4 4 4 3 2 1 2 1 1 1 2 1 1 1 2 2 2 6 3 2 5 4 3 4 4 3 2 1 0 2 5 5 5 6 4 3 8 9 8 7 8 6 5 5 6 7 6
9 17 12 12 6 3 3 3 1 4 2 1 1 2 1 1 1 2 1 2 1 2 7 6 4 3 4 3 3 4 5 6 3 3 0 1 0 1 3 2 2 2 2 7 8 9 6 5 7 7 6 6 7 7
6 8 8 6 4 7 5 2 4 2 1 2 1 1 1 1 2 3 2 2 6 6 4 4 2 2 4 3 1 2 4 6 4 2 3 4 3 2 2 2 3 2 2 5 8 7 8 7 5 5 7 7 7 7
2 10 3 5 5 4 5 2 1 1 2 2 1 2 2 3 3 3 4 8 5 2 2 3 4 5 6 4 5 2 4 6 6 3 3 3 3 3 3 3 4 4 6 5 5 7 7 5 5 7 7 6 7 8
8 6 5 6 7 6 2 0 2 4 3 1 1 3 3 2 2 2 6 4 3 2 2 2 5 5 6 7 6 4 3 5 5 5 4 3 3 3 3 4 3 3 4 4 3 7 7 9 7 8 6 6 8 8
10 9 7 5 5 0 2 4 2 2 2 3 2 3 3 3 5 4 4 3 0 1 2 5 4 4 2 1 2 2 3 3 4 3 4 3 3 4 3 2 4 4 4 4 5 6 7 7 7 6 6 7 8 9
9 11 6 8 4 6 6 6 5 4 3 3 2 2 2 3 4 5 3 3 4 5 7 8 6 5 2 3 2 4 1 3 4 3 4 3 2 3 3 4 4 3 2 4 5 6 6 6 6 6 6 7 11 11
10 5 6 6 5 5 4 4 4 3 2 3 2 2 2 2 5 4 3 4 4 5 7 8 7 7 5 3 5 6 6 5 5 3 3 2 1 3 2 1 1 3 2 3 5 7 7 7 8 9 9 11 13 13
8 6 4 1 3 4 2 1 1 4 5 4 4 5 3 5 3 2 2 2 3 3 6 6 6 5 6 8 7 6 6 5 4 4 5 3 3 1 3 4 4 4 3 4 5 7 9 9 10 9 10 8 7 9
3 4 7 9 4 4 4 4 5 5 3 3 1 6 4 2 1 3 2 2 6 6 7 7 6 6 6 6 6 6 6 5 5 4 3 2 2 2 3 1 1 8 4 4 5 6 7 8 10 10 11 11 9 7
4 6 4 4 3 5 5 6 3 2 2 2 2 3 3 2 2 2 3 6 7 6 5 6 6 6 5 3 3 3 3 4 5 4 3 1 2 3 3 3 3 4 5 6 10 9 11 9 10 10 11 10 10 8
5 5 4 6 4 6 2 2 2 1 1 1 1 2 3 2 3 1 3 4 5 5 6 5 5 6 5 6 6 5 3 5 5 3 4 3 3 3 2 2 3 4 5 7 9 12 16 13 13 10 10 9 9 9
5 4 4 2 2 1 2 1 1 1 1 0 0 2 2 2 3 2 2 3 3 5 5 6 6 5 6 7 6 7 6 3 9 8 5 4 5 2 3 3 3 5 7 8 8 8 9 9 8 10 11 11 12 11
4 4 3 4 2 0 0 2 1 0 2 1 2 1 1 3 3 4 3 6 9 8 8 7 6 5 6 5 5 4 7 8 8 8 6 4 4 4 3 3 4 6 6 6 7 8 11 11 9 10 11 11 11 11
3 3 3 3 3 3 5 5 2 2 3 3 3 2 2 2 3 2 2 1 1 3 5 7 7 6 6 6 5 7 8 7 11 11 6 6 5 4 3 3 4 6 7 6 6 7 9 12 11 11 11 11 10 10
Wind_Direction
283 252 240 196 210 208 201 204 211 223 228 225 224 232 225 232 241 219 212 208 233 222 251 271 227 222 254 260 221 204 132 209 172 227 200 197 210 226 243 171 170 171 178 177 199 225 254 164 62 165 236 228 214 188
309 265 281 196 201 200 202 200 196 213 210 212 204 223 237 242 245 235 223 201 205 225 295 331 295 290 277 252 18 303 220 160 191 198 216 249 217 197 200 230 158 200 201 197 195 214 242 209 219 233 7 302 221 198
266 291 309 206 198 195 193 191 201 204 205 204 206 217 237 250 250 232 213 197 163 230 268 230 238 229 240 234 175 219 260 254 250 215 206 230 236 165 212 224 156 229 159 208 178 235 241 232 258 256 246 236 276 248
255 261 332 215 193 196 186 189 196 204 201 205 213 222 236 257 254 232 213 198 200 337 265 255 199 226 228 222 219 207 231 268 271 329 273 228 240 217 237 245 219 197 151 187 254 247 330 269 239 256 262 238 203 188
232 261 300 223 187 188 186 186 195 205 207 213 216 221 225 243 238 230 215 208 201 201 287 258 336 235 220 217 232 234 228 242 239 228 254 252 221 297 254 313 249 198 200 200 231 184 219 241 245 249 232 242 237 182
220 255 294 192 185 189 185 187 191 199 212 215 223 213 217 220 221 145 260 203 199 199 251 237 237 197 204 234 232 227 230 235 228 202 225 230 267 145 285 252 238 209 217 227 239 232 221 251 293 315 234 231 206 202
232 262 282 182 184 185 185 188 187 196 200 216 223 224 224 221 202 187 189 121 197 157 210 248 254 211 186 208 227 230 228 217 213 226 228 241 235 194 215 244 249 291 294 287 258 230 275 235 247 246 215 255 161 126
266 269 211 179 180 181 186 195 199 202 201 216 221 226 232 226 313 243 235 249 187 186 171 227 257 114 169 184 212 181 209 199 219 228 194 222 222 212 240 247 254 246 267 270 265 254 245 260 288 251 173 130 155 180
234 210 175 175 179 188 192 196 204 209 207 213 209 233 300 130 198 225 193 193 199 209 206 173 180 222 171 205 174 199 218 201 187 226 224 198 199 211 217 239 245 221 213 247 242 252 257 237 256 248 173 212 196 206
192 189 174 176 189 199 204 207 211 211 215 215 188 107 218 197 208 103 119 184 189 202 205 210 141 238 161 182 225 157 189 214 236 217 178 217 237 238 239 248 241 250 239 220 238 254 249 245 234 234 210 214 211 213
163 164 174 197 213 221 222 220 219 218 215 171 160 204 76 133 103 166 199 193 191 221 183 200 191 199 195 266 221 206 227 226 212 224 196 210 232 230 234 244 238 224 214 219 226 242 237 204 222 224 228 210 212 192
112 179 227 236 236 233 228 226 221 218 175 179 126 96 166 185 161 194 190 158 199 208 204 172 191 185 207 141 209 257 250 252 240 169 172 241 230 240 337 295 326 273 234 230 216 236 245 224 221 212 215 184 176 159
317 289 279 269 260 247 237 230 224 220 203 148 176 157 167 180 177 184 190 242 214 191 211 173 173 150 113 176 193 198 230 230 129 179 219 263 301 323 333 324 321 322 318 269 212 189 194 229 179 191 170 156 140 144
19 348 306 275 306 247 223 215 217 175 121 158 160 162 202 177 199 186 195 157 164 127 132 128 126 193 186 167 220 228 211 176 278 203 252 69 334 306 320 322 311 307 322 312 236 164 130 121 87 50 124 144 140 151
50 344 346 90 65 52 115 167 137 88 107 133 172 191 201 125 49 101 119 79 225 233 164 177 253 188 208 225 240 217 257 232 175 218 204 83 282 298 334 333 333 331 328 329 330 65 109 105 120 91 67 132 133 137
33 2 355 84 70 74 98 88 39 72 43 73 48 87 70 84 183 126 167 148 96 240 89 251 191 194 188 237 177 226 229 200 108 359 35 352 299 5 341 326 328 333 346 26 37 41 67 88 101 88 62 79 117 124
70 18 11 42 46 51 47 78 80 55 102 78 9 44 21 88 48 98 46 75 1 113 220 238 215 184 132 174 83 26 12 26 216 324 62 18 329 1 330 319 336 336 2 33 64 78 78 72 77 78 76 46 69 76
54 344 32 31 34 42 41 29 71 71 66 8 35 66 62 47 314 127 71 43 263 178 239 241 201 77 73 110 208 345 50 132 66 33 11 359 356 347 326 329 321 332 37 80 64 58 59 66 68 75 83 82 84 81
46 38 39 55 58 71 53 39 13 88 59 25 65 46 355 68 324 326 308 1 330 305 304 302 53 60 49 30 4 360 14 20 359 56 86 284 339 316 316 357 346 328 42 63 61 63 59 59 76 74 74 80 87 82
75 42 50 57 31 89 82 30 344 91 106 118 188 105 29 291 290 296 317 0 322 71 37 35 32 29 1 344 358 325 328 334 316 311 187 114 225 325 30 358 256 322 19 91 79 78 84 73 52 55 66 82 96 91
46 356 22 51 48 57 71 358 61 68 101 84 9 278 170 189 45 21 325 266 71 35 54 17 43 316 306 251 289 297 326 359 348 327 319 324 330 339 332 3 22 27 15 47 84 69 63 64 60 63 68 72 79 84
324 354 54 16 79 56 73 12 69 181 82 152 81 356 25 38 0 356 304 51 61 37 32 328 317 318 327 345 334 323 285 308 292 289 328 331 347 350 21 352 24 34 28 22 67 89 81 74 77 79 78 84 84 90
6 20 41 19 70 45 297 284 58 354 88 315 29 65 22 33 279 317 76 83 113 141 193 240 267 251 257 297 318 329 340 344 341 346 335 339 346 348 18 21 38 88 90 66 58 87 85 84 84 90 96 102 104 99
32 47 37 43 39 2 358 17 17 55 50 29 51 71 5 316 319 57 75 61 136 117 31 351 338 324 336 354 6 314 321 320 310 329 345 344 355 348 11 14 27 33 67 90 86 91 91 94 98 100 117 116 107 102
64 353 27 360 360 16 32 7 349 48 74 2 82 52 349 333 65 55 63 358 345 5 359 351 356 3 327 302 344 336 46 34 345 323 309 347 19 8 15 4 19 15 32 91 101 104 102 102 100 112 124 116 110 107
66 344 33 342 350 21 340 16 24 359 15 58 27 295 340 43 63 54 27 341 336 348 353 341 336 330 324 11 329 325 325 335 318 278 284 327 265 171 202 257 349 318 335 99 125 126 133 127 123 127 117 112 116 115
47 341 335 333 308 288 272 178 226 52 49 35 348 351 37 70 71 300 14 34 317 314 312 293 283 270 279 298 300 290 303 298 267 274 291 298 297 301 166 173 192 214 141 123 141 144 139 131 129 126 117 106 111 122
53 34 350 324 333 12 337 24 32 30 357 352 291 36 85 70 211 302 285 306 322 300 283 262 230 231 261 269 277 296 303 304 282 278 275 279 301 343 327 348 103 122 111 113 121 121 124 128 129 130 120 111 107 107
28 344 303 328 336 52 42 16 29 45 344 322 63 71 108 113 235 281 304 318 298 294 323 337 333 320 286 240 253 308 333 339 353 309 285 299 321 337 327 17 71 97 114 125 120 117 121 121 119 116 112 109 104 100
354 343 334 349 27 21 18 343 359 40 44 47 95 77 34 322 244 199 293 314 345 341 329 329 338 351 356 359 346 2 36 28 23 5 332 3 333 309 9 13 96 108 119 126 126 118 107 106 104 102 104 106 104 101
312 310 307 312 52 36 348 4 143 181 194 97 177 92 154 224 309 266 280 279 281 314 344 355 351 18 8 4 360 346 334 7 350 330 310 267 275 359 30 17 58 88 97 102 104 108 118 113 116 119 117 117 118 116
327 6 332 322 340 137 330 339 278 209 153 140 44 100 48 56 28 300 310 351 9 11 350 344 340 332 337 321 306 305 297 295 309 314 337 337 17 32 15 18 60 83 94 102 111 122 118 117 118 117 114 117 118 122
294 317 323 303 310 3 9 334 238 116 61 66 42 14 36 36 87 285 293 127 194 272 298 311 299 293 300 306 303 312 321 313 322 345 42 52 49 49 35 37 70 84 92 95 100 115 118 122 120 121 122 124 123 125